Helicity
163 152 152 153 148 156 157 156 159 156 155 157 158 161 160 160 172 168 181 193 169 169
141 134 133 135 136 138 147 147 154 155 157 166 177 187 186 186 201 217 236 241 227 252
107 109 113 124 134 137 140 144 142 146 152 162 176 179 175 168 177 191 210 222 236 251
105 112 117 125 132 142 147 156 157 157 157 159 163 156 152 168 182 194 206 219 220 222
96 104 115 125 136 147 158 168 165 159 159 154 146 136 134 164 198 225 236 230 224 209
82 91 112 124 135 147 149 156 158 151 148 138 132 130 136 142 180 203 211 200 185 162
70 90 103 121 131 149 145 147 137 132 130 131 139 137 128 114 140 154 166 167 149 132
47 75 100 105 109 112 119 117 105 109 118 117 104 106 112 118 125 128 146 152 165 147
59 74 89 90 92 102 109 114 108 114 114 117 104 94 93 95 101 98 93 89 78 80
72 82 83 92 92 95 101 101 105 112 101 94 78 70 62 63 44 45 45 49 55 58
78 85 77 82 90 98 103 105 99 88 75 56 45 38 49 53 45 49 48 50 49 52
84 83 70 69 72 75 83 81 71 50 52 36 32 44 47 44 34 45 47 43 39 47
71 70 72 69 65 61 53 49 38 43 37 35 37 37 34 34 36 43 39 42 46 51
77 80 72 71 58 49 40 45 38 42 42 44 32 22 36 51 38 43 44 44 46 48
Wind_Speed
47 48 48 50 50 51 51 51 52 54 54 54 54 55 54 51 49 46 42 40 36 37
45 45 46 46 47 49 50 51 51 51 51 52 53 52 50 48 47 43 40 40 36 35
46 47 46 46 48 49 51 51 50 49 49 50 49 48 46 45 43 41 41 40 37 36
48 50 50 51 51 51 50 50 49 48 47 46 46 46 43 43 42 40 39 38 36 36
49 51 52 53 53 51 51 48 46 45 45 45 44 43 41 40 39 38 37 36 35 36
51 51 50 51 51 48 46 45 44 43 42 42 41 39 39 38 36 35 34 35 36 36
48 48 47 46 46 45 41 40 39 39 39 38 38 37 35 34 31 30 31 32 33 34
41 41 40 40 39 38 37 35 35 35 35 35 34 33 30 29 27 28 29 31 33 34
37 38 38 36 34 33 33 30 29 29 29 31 30 27 26 26 27 28 29 29 31 33
34 34 36 35 34 31 27 24 24 23 23 24 25 25 26 28 28 29 30 30 31 33
35 33 32 31 26 23 21 19 20 19 19 20 22 23 26 28 29 30 30 31 32 33
30 28 25 25 22 18 15 15 15 16 16 18 21 24 26 27 28 29 31 32 33 34
31 30 25 21 18 14 11 12 13 14 16 19 21 23 25 27 29 30 31 32 33 35
20 19 22 18 16 10 10 11 12 14 17 20 23 24 24 27 29 30 31 32 33 35
Wind_Direction
301 301 302 303 304 305 306 309 312 313 314 316 317 317 317 318 318 315 312 309 310 312
304 305 305 306 306 307 309 310 312 315 317 318 319 322 322 322 321 322 322 320 317 316
303 304 306 307 307 307 308 310 313 315 317 320 324 327 328 326 326 324 323 322 322 323
301 302 303 304 305 306 308 310 313 315 318 323 326 328 329 329 328 326 326 328 328 328
298 300 301 302 303 306 306 310 315 318 319 323 326 329 331 331 330 330 330 331 332 331
298 298 299 302 304 307 309 311 314 318 321 324 328 331 333 335 335 336 337 336 334 334
303 301 302 304 306 308 312 314 318 321 324 329 331 335 338 341 345 347 349 349 347 345
310 310 309 308 310 311 313 318 320 325 330 333 336 340 345 353 0 1 4 2 359 356
311 313 311 312 314 316 317 323 326 330 334 336 348 1 9 14 14 16 15 13 9 4
311 314 312 312 312 313 320 327 332 340 346 352 1 13 20 25 25 23 21 17 10 5
309 313 312 314 321 321 321 330 336 344 357 3 10 23 29 27 24 25 20 14 9 6
309 312 317 318 321 324 332 344 354 360 6 10 15 19 21 21 21 18 13 8 7 4
302 303 309 315 319 333 355 356 355 354 356 3 5 10 12 14 13 13 11 10 7 4
319 317 304 311 318 335 347 344 343 341 345 349 346 352 3 13 13 14 12 10 6 3